Nashville, TN

5:28 AM CST on December 08, 2019 (GMT -0600)
Nashville International

Weather History for KBNA - October, 2019

Change the Weather History Date:

Monday, October 7, 2019

  Actual Average Record
Temperature  
Mean Temperature 62 °F 63 °F  
Max Temperature 68 °F 75 °F 93 °F (1941)
Min Temperature 55 °F 52 °F 33 °F (1952)
Degree Days  
Heating Degree Days 4    
Month to date heating degree days 3  
Since 1 July heating degree days 3  
Cooling Degree Days 0    
Month to date cooling degree days 86  
Year to date cooling degree days 2257  
Growing Degree Days 12 (Base 50)    
Moisture  
Dew Point 59 °F    
Average Humidity 86    
Maximum Humidity 94    
Minimum Humidity 72    
Precipitation  
Precipitation 1.48 in 0.09 in 1.57 in (1927)
Month to date precipitation 2.19 0.71  
Year to date precipitation 49.61 36.37  
Sea Level Pressure  
Sea Level Pressure 30.12 in    
Wind  
Wind Speed 6 mph ()    
Max Wind Speed 18 mph    
Max Gust Speed 23 mph    
Visibility 6.5 miles    
Events Rain , Thunderstorm    
T = Trace of Precipitation, MM = Missing Value Source: Averaged Metar Reports

Daily Weather History Graph

Daily Weather History Graph

Search for Another Location

Airport or City:

Astronomy

Oct. 07, 2019 Rise Set
Actual Time 6:46 AM CDT 6:22 PM CDT
Civil Twilight 6:20 AM CDT 6:47 PM CDT
Nautical Twilight 5:51 AM CDT 7:17 PM CDT
Astronomical Twilight 5:21 AM CDT 7:47 PM CDT
Moon 3:31 PM CDT (10/7) 12:52 AM CDT (10/7)
Length of Visible Light 12h 26m
Length of Day
11h 35m
Waxing Gibbous, 69% of the Moon is Illuminated
Oct 7
Waxing Gibbous
Oct 13
Full
Oct 21
Last Quarter
Oct 27
New
Nov 4
First Quarter

Hourly Weather History & Observations

Time (CDT) Temp. Dew Point Humidity Pressure Visibility Wind Dir Wind Speed Gust Speed Precip Events Conditions
12:51 AM 66.2 °F 64.4 °F 94% 30.12 in 3.0 mi Calm Calm - 0.21 in Rain , Thunderstorm Rain
12:53 AM 66.9 °F 64.0 °F 90% 30.10 in 2.5 mi Calm Calm - 0.22 in Rain , Thunderstorm Rain
1:00 AM 66.9 °F 64.0 °F 90% 30.11 in 3.0 mi Calm Calm - 0.02 in Rain Rain
1:12 AM 68.0 °F 64.9 °F 90% 30.11 in 6.0 mi NNW 5.8 mph - 0.05 in Rain Light Rain
1:26 AM 68.0 °F 64.9 °F 90% 30.10 in 8.0 mi NNE 8.1 mph - 0.06 in Rain Light Rain
1:53 AM 68.0 °F 64.9 °F 90% 30.07 in 10.0 mi ENE 5.8 mph - 0.07 in Rain Light Rain
2:01 AM 68.0 °F 64.9 °F 90% 30.09 in 8.0 mi ENE 5.8 mph - 0.01 in Rain , Thunderstorm Light Rain
2:24 AM 68.0 °F 64.9 °F 90% 30.07 in 6.0 mi ENE 8.1 mph - 0.05 in Rain Rain
2:34 AM 68.0 °F 64.9 °F 90% 30.06 in 6.0 mi ENE 10.4 mph - 0.08 in Rain Rain
2:42 AM 68.0 °F 64.9 °F 90% 30.08 in 2.0 mi ENE 4.6 mph - 0.10 in Rain Rain
2:45 AM 66.9 °F 64.9 °F 93% 30.08 in 1.2 mi SSW 9.2 mph - 0.26 in Rain Heavy Rain
2:53 AM 66.9 °F 64.0 °F 90% 30.05 in 1.5 mi SSW 10.4 mph - 0.43 in Rain , Thunderstorm Heavy Rain
2:59 AM 66.9 °F 63.0 °F 87% 30.07 in 3.0 mi SSW 6.9 mph - 0.03 in Rain , Thunderstorm Rain
3:08 AM 66.9 °F 63.0 °F 87% 30.07 in 3.0 mi SW 4.6 mph - 0.07 in Rain Rain
3:49 AM 66.2 °F 64.4 °F 94% 30.07 in 2.5 mi Calm Calm - 0.26 in Rain Rain
3:53 AM 66.0 °F 64.0 °F 93% 30.05 in 2.5 mi Calm Calm - 0.28 in Rain Rain
4:00 AM 66.0 °F 64.0 °F 93% 30.06 in 4.0 mi Calm Calm - 0.03 in Rain Light Rain
4:12 AM 66.9 °F 64.0 °F 90% 30.06 in 4.0 mi NW 8.1 mph - 0.07 in Rain Rain
4:23 AM 66.9 °F 64.0 °F 90% 30.06 in 5.0 mi Variable 6.9 mph - 0.11 in Rain , Thunderstorm Rain
4:34 AM 66.9 °F 64.0 °F 90% 30.06 in 4.0 mi North 8.1 mph - 0.17 in Rain Rain
4:43 AM 66.9 °F 64.0 °F 90% 30.05 in 4.0 mi NE 9.2 mph - 0.22 in Rain Rain
4:53 AM 66.9 °F 64.0 °F 90% 30.04 in 5.0 mi ENE 6.9 mph - 0.27 in Rain Rain
5:38 AM 66.9 °F 64.0 °F 90% 30.05 in 8.0 mi NE 3.5 mph - 0.11 in Rain Light Rain
5:53 AM 66.9 °F 64.0 °F 90% 30.05 in 6.0 mi NW 4.6 mph - 0.13 in Rain Light Rain
6:02 AM 66.9 °F 64.0 °F 90% 30.08 in 7.0 mi NW 4.6 mph - 0.01 in Rain Light Rain
6:53 AM 66.9 °F 63.0 °F 87% 30.09 in 10.0 mi NW 8.1 mph - 0.04 in   Overcast
7:10 AM 64.9 °F 62.1 °F 90% 30.11 in 10.0 mi NNW 13.8 mph - N/A   Overcast
7:53 AM 62.1 °F 57.9 °F 86% 30.14 in 10.0 mi NNW 12.7 mph - N/A   Overcast
8:53 AM 60.1 °F 55.0 °F 83% 30.14 in 10.0 mi North 15.0 mph - N/A   Overcast
9:53 AM 60.1 °F 54.0 °F 80% 30.18 in 10.0 mi NNE 12.7 mph - N/A   Overcast
10:53 AM 61.0 °F 54.0 °F 78% 30.18 in 10.0 mi North 11.5 mph - N/A   Overcast
11:10 AM 61.0 °F 54.0 °F 78% 30.19 in 10.0 mi North 11.5 mph - N/A   Overcast
11:53 AM 61.0 °F 54.0 °F 78% 30.18 in 7.0 mi North 10.4 mph - N/A   Overcast
12:35 PM 59.0 °F 54.0 °F 83% 30.18 in 6.0 mi North 13.8 mph - N/A   Haze
12:51 PM 59.0 °F 55.4 °F 88% 30.18 in 2.0 mi North 11.5 mph - 0.00 in Rain Light Rain
12:53 PM 59.0 °F 55.0 °F 87% 30.17 in 2.0 mi North 11.5 mph - 0.01 in Rain Light Rain
1:09 PM 59.0 °F 55.0 °F 87% 30.18 in 1.8 mi North 13.8 mph - 0.01 in Rain Light Rain
1:16 PM 59.0 °F 55.0 °F 87% 30.17 in 2.0 mi North 11.5 mph - 0.02 in Rain Light Rain
1:53 PM 60.1 °F 55.9 °F 86% 30.15 in 5.0 mi NNE 11.5 mph - 0.03 in   Overcast
2:53 PM 61.0 °F 55.9 °F 83% 30.15 in 10.0 mi North 11.5 mph - 0.00 in Rain Light Rain
3:17 PM 62.1 °F 55.9 °F 80% 30.16 in 10.0 mi NNE 9.2 mph - 0.00 in Rain Light Rain
3:53 PM 62.1 °F 55.0 °F 78% 30.14 in 10.0 mi North 12.7 mph - 0.00 in   Overcast
4:26 PM 63.0 °F 55.0 °F 75% 30.16 in 10.0 mi North 10.4 mph - N/A   Mostly Cloudy
4:53 PM 63.0 °F 55.0 °F 75% 30.14 in 10.0 mi North 10.4 mph - N/A   Mostly Cloudy
5:53 PM 61.0 °F 52.0 °F 72% 30.15 in 10.0 mi NNE 10.4 mph - N/A   Mostly Cloudy
6:53 PM 61.0 °F 53.1 °F 75% 30.15 in 10.0 mi NE 8.1 mph - N/A   Mostly Cloudy
7:53 PM 60.1 °F 52.0 °F 75% 30.17 in 10.0 mi NE 8.1 mph - N/A   Mostly Cloudy
8:53 PM 57.9 °F 52.0 °F 81% 30.18 in 10.0 mi NNE 5.8 mph - N/A   Scattered Clouds
9:53 PM 57.9 °F 51.1 °F 78% 30.19 in 10.0 mi NNE 6.9 mph - N/A   Partly Cloudy
10:53 PM 57.0 °F 50.0 °F 77% 30.18 in 10.0 mi NNE 8.1 mph - N/A   Clear
11:53 PM 55.9 °F 50.0 °F 80% 30.17 in 10.0 mi NNE 8.1 mph - N/A   Clear